Date,TemperatureHighF,TemperatureAvgF,TemperatureLowF,DewpointHighF,DewpointAvgF,DewpointLowF,HumidityHigh,HumidityAvg,HumidityLow,PressureMaxIn,PressureMinIn,WindSpeedMaxMPH,WindSpeedAvgMPH,GustSpeedMaxMPH,PrecipitationSumIn
2013-1-1,21.0,14.9,3.0,21.0,11.1,1.0,100,85,67,30.29,30.15,13,5,0,0.00
2013-1-2,30.0,15.4,0.0,19.0,10.5,-2.0,100,81,58,30.26,30.15,12,6,0,0.00
2013-1-3,34.0,25.0,14.0,27.0,21.8,14.0,100,87,69,30.41,30.21,14,7,17,0.00
2013-1-4,36.0,23.1,12.0,25.0,18.8,12.0,100,85,64,30.41,30.29,17,8,23,0.00
2013-1-5,36.0,30.3,21.0,34.0,27.2,18.0,100,89,74,30.29,30.09,16,10,21,0.00
2013-1-6,34.0,26.5,19.0,30.0,21.9,16.0,100,83,63,30.37,30.10,20,10,25,0.00
2013-1-7,45.0,30.2,18.0,30.0,23.5,16.0,100,77,52,30.36,30.11,16,9,22,0.00
2013-1-8,48.0,37.5,28.0,32.0,28.3,25.0,86,70,49,30.15,30.04,18,9,20,0.00
2013-1-9,50.0,39.0,32.0,39.0,32.9,28.0,100,79,57,30.46,30.15,10,6,0,0.00
2013-1-10,43.0,38.7,32.0,41.0,-30.6,-99.9,100,46,74,30.44,29.77,14,8,20,0.00
2013-1-11,59.0,50.6,41.0,50.0,2.0,-99.9,100,55,67,29.83,29.69,21,15,30,0.00
2013-1-12,54.0,39.7,28.0,46.0,32.3,23.0,92,74,57,30.03,29.75,18,12,27,0.00
2013-1-13,19.0,16.8,10.0,14.0,11.5,9.0,92,80,72,30.36,30.14,14,8,17,0.00
2013-1-14,23.0,14.5,9.0,16.0,9.7,7.0,100,81,62,30.49,30.36,7,2,0,0.00
2013-1-15,25.0,17.0,7.0,19.0,13.1,5.0,100,84,73,30.42,30.17,9,1,0,0.00
2013-1-16,37.0,24.9,10.0,25.0,18.1,9.0,100,76,55,30.18,30.01,18,9,27,0.00
2013-1-17,36.0,29.8,23.0,28.0,24.3,21.0,100,80,59,30.48,30.12,14,8,18,0.00
2013-1-18,52.0,36.8,25.0,32.0,26.4,21.0,92,68,43,30.47,30.09,23,15,31,0.00
2013-1-19,55.0,44.1,36.0,39.0,32.7,28.0,75,64,53,30.18,29.94,27,16,33,0.00
2013-1-20,37.0,25.7,19.0,30.0,15.3,10.0,85,65,50,30.38,30.18,16,9,21,0.00
2013-1-21,19.0,15.0,10.0,12.0,3.4,-2.0,85,60,37,30.40,30.34,21,12,31,0.00
2013-1-22,18.0,12.7,10.0,10.0,5.3,0.0,92,71,56,30.47,30.35,8,4,0,0.00
2013-1-23,41.0,23.7,9.0,23.0,16.2,9.0,100,74,48,30.39,30.15,16,6,23,0.00
2013-1-24,23.0,17.1,9.0,14.0,6.8,3.0,84,63,48,30.58,30.24,16,12,23,0.00
2013-1-25,41.0,29.2,21.0,23.0,17.6,12.0,79,62,44,30.24,30.12,15,7,18,0.00
2013-1-26,41.0,28.7,18.0,23.0,18.1,12.0,92,65,38,30.39,30.24,13,6,0,0.00
2013-1-27,52.0,37.5,27.0,50.0,34.8,18.0,100,90,63,30.25,29.86,24,13,30,0.00
2013-1-28,72.0,58.6,50.0,61.0,48.2,-99.9,100,83,64,29.93,29.79,17,11,24,0.00
2013-1-29,64.0,56.3,48.0,59.0,-6.4,-99.9,100,52,82,29.80,29.44,22,10,31,0.00
2013-1-30,48.0,30.3,23.0,41.0,-2.2,-99.9,100,68,73,29.93,29.36,22,6,29,0.00
2013-1-31,27.0,17.0,7.0,19.0,8.9,-2.0,85,70,58,30.42,29.93,14,1,20,0.00
2013-2-1,27.0,15.1,5.0,14.0,5.2,-2.0,78,65,52,30.47,30.17,0,0,0,0.00
2013-2-2,34.0,29.8,27.0,28.0,22.4,14.0,100,73,58,30.19,30.05,20,6,24,0.00
2013-2-3,34.0,27.0,21.0,30.0,16.5,-99.9,100,72,50,30.24,29.96,18,4,27,0.00
2013-2-4,45.0,31.9,23.0,32.0,25.8,21.0,92,79,56,29.99,29.82,17,7,23,0.00
2013-2-5,48.0,33.6,23.0,36.0,28.8,21.0,100,84,57,30.15,29.91,20,-15,27,0.00
2013-2-6,54.0,37.1,25.0,34.0,30.0,25.0,100,78,43,30.20,30.01,13,7,0,0.00
2013-2-7,45.0,38.7,32.0,45.0,15.5,-99.9,100,79,74,30.11,29.88,18,8,24,0.00
2013-2-8,32.0,29.8,28.0,32.0,28.4,27.0,100,94,86,30.38,30.11,17,8,23,0.00
2013-2-9,41.0,33.0,28.0,34.0,29.1,27.0,100,85,65,30.34,29.95,16,11,21,0.00
2013-2-10,59.0,44.4,34.0,52.0,31.3,-99.9,100,77,41,29.95,29.49,31,19,41,0.00
2013-2-11,45.0,37.2,28.0,30.0,27.0,25.0,86,66,52,30.16,29.79,30,16,40,0.00
2013-2-12,37.0,31.0,23.0,30.0,26.8,23.0,100,84,64,30.18,29.97,6,1,0,0.00
2013-2-13,46.0,36.2,28.0,32.0,29.5,27.0,100,77,57,29.97,29.82,20,9,25,0.00
2013-2-14,48.0,39.8,34.0,34.0,31.2,27.0,93,72,56,30.10,29.81,21,11,25,0.00
2013-2-15,34.0,28.2,21.0,27.0,19.0,14.0,86,68,43,30.32,30.10,17,11,22,0.00
2013-2-16,34.0,24.4,16.0,23.0,15.8,12.0,92,70,43,30.30,30.16,14,6,18,0.00
2013-2-17,48.0,35.8,27.0,32.0,24.1,19.0,86,65,39,30.16,29.83,16,8,23,0.00
2013-2-18,52.0,44.4,36.0,48.0,38.4,32.0,100,80,65,29.83,29.48,25,18,33,0.00
2013-2-19,28.0,22.7,19.0,16.0,12.9,10.0,73,66,54,30.34,30.12,24,15,32,0.00
2013-2-20,23.0,18.4,12.0,14.0,11.0,9.0,85,72,62,30.42,30.28,12,7,0,0.00
2013-2-21,27.0,22.1,19.0,27.0,19.8,14.0,100,90,73,30.30,29.81,22,13,28,0.00
2013-2-22,30.0,25.9,16.0,30.0,22.8,14.0,100,88,73,30.07,29.77,21,11,25,0.00
2013-2-23,28.0,17.2,7.0,18.0,13.3,5.0,100,86,63,30.06,29.99,10,5,0,0.00
2013-2-24,39.0,23.7,3.0,27.0,17.8,1.0,100,79,55,30.11,30.01,10,4,0,0.00
2013-2-25,39.0,30.0,18.0,32.0,25.8,16.0,100,85,64,30.06,29.69,22,10,29,0.00
2013-2-26,32.0,31.1,30.0,32.0,-72.1,-99.9,100,21,100,29.69,29.55,21,20,29,0.00
2013-2-27,32.0,29.1,27.0,28.0,27.2,25.0,100,90,80,29.94,29.79,23,15,28,0.00
2013-2-28,32.0,28.7,27.0,28.0,26.5,25.0,100,89,80,30.14,29.93,18,12,24,0.00
2013-3-1,32.0,27.0,21.0,27.0,23.8,18.0,100,87,74,30.25,30.10,13,9,16,0.00
2013-3-2,30.0,23.0,12.0,21.0,17.7,10.0,100,80,59,30.31,30.23,15,8,20,0.00
2013-3-3,32.0,21.7,5.0,25.0,16.8,5.0,100,82,63,30.23,29.97,12,5,0,0.00
2013-3-4,41.0,34.6,28.0,32.0,28.0,25.0,93,76,60,29.97,29.74,16,8,21,0.00
2013-3-5,34.0,30.2,28.0,32.0,26.2,21.0,100,85,68,30.22,29.85,32,19,43,0.00
2013-3-6,32.0,27.2,18.0,23.0,20.6,16.0,92,76,63,30.40,30.22,21,9,29,0.00
2013-3-7,37.0,26.3,10.0,28.0,22.1,10.0,100,84,64,30.40,30.28,12,5,0,0.00
2013-3-8,41.0,33.2,23.0,32.0,28.1,23.0,100,82,65,30.36,30.15,13,7,0,0.00
2013-3-9,54.0,41.0,34.0,43.0,35.4,30.0,100,81,54,30.15,29.72,21,10,31,0.00
2013-3-10,52.0,44.1,34.0,50.0,-40.0,-99.9,100,41,87,29.77,29.59,22,12,29,0.00
2013-3-11,34.0,30.2,28.0,34.0,28.1,25.0,100,91,74,29.99,29.75,22,15,28,0.00
2013-3-12,41.0,31.8,25.0,30.0,25.6,23.0,92,78,60,30.24,29.98,28,13,38,0.00
2013-3-13,37.0,29.6,23.0,25.0,20.7,18.0,92,70,47,30.46,30.24,23,10,31,0.00
2013-3-14,61.0,40.5,27.0,43.0,31.0,21.0,92,70,47,30.40,30.06,14,8,20,0.00
2013-3-15,73.0,52.7,32.0,50.0,40.7,30.0,100,67,43,30.10,29.68,17,7,21,0.00
2013-3-16,59.0,41.4,36.0,48.0,36.9,32.0,100,83,62,30.09,29.67,25,11,31,0.00
2013-3-17,36.0,32.3,30.0,32.0,30.2,27.0,100,92,80,30.10,29.79,16,11,22,0.00
2013-3-18,48.0,36.7,32.0,36.0,-6.3,-99.9,100,54,45,30.04,29.71,28,12,36,0.00
2013-3-19,41.0,32.8,27.0,28.0,20.0,16.0,86,60,35,30.24,30.04,14,8,22,0.00
2013-3-20,32.0,27.7,23.0,32.0,18.3,10.0,100,69,43,30.31,30.14,20,12,28,0.00
2013-3-21,34.0,25.3,16.0,21.0,16.6,12.0,92,69,50,30.14,29.97,9,4,0,0.00
2013-3-22,36.0,31.8,28.0,28.0,24.9,21.0,80,74,64,30.04,29.98,10,7,0,0.00
2013-3-23,48.0,38.5,32.0,34.0,28.9,25.0,86,69,49,30.05,29.87,15,9,22,0.00
2013-3-24,37.0,29.3,28.0,34.0,29.2,28.0,100,100,86,29.92,29.71,25,15,32,0.00
2013-3-25,32.0,28.2,23.0,28.0,24.9,21.0,100,87,68,30.23,29.91,18,13,24,0.00
2013-3-26,36.0,29.7,23.0,25.0,22.7,19.0,92,76,59,30.37,30.23,15,9,18,0.00
2013-3-27,43.0,30.6,18.0,32.0,25.1,18.0,100,81,55,30.39,30.28,7,3,0,0.00
2013-3-28,54.0,41.2,32.0,41.0,34.0,28.0,92,77,58,30.32,30.22,15,9,18,0.00
2013-3-29,61.0,45.6,34.0,46.0,39.7,34.0,100,81,51,30.26,30.19,12,6,0,0.00
2013-3-30,48.0,42.9,36.0,46.0,17.3,-99.9,100,80,86,30.20,29.92,15,7,16,0.00
2013-3-31,63.0,50.6,41.0,50.0,7.9,-99.9,100,54,48,29.99,29.89,21,9,27,0.00
2013-4-1,43.0,37.2,32.0,32.0,27.2,21.0,86,68,41,30.27,29.99,22,10,25,0.00
2013-4-2,45.0,35.0,25.0,28.0,22.3,19.0,86,62,38,30.37,30.27,8,3,0,0.00
2013-4-3,48.0,37.9,27.0,30.0,24.9,21.0,86,61,39,30.42,30.26,16,7,18,0.00
2013-4-4,55.0,43.5,32.0,36.0,28.9,25.0,86,59,35,30.26,30.06,8,2,0,0.00
2013-4-5,64.0,49.5,36.0,43.0,36.0,30.0,93,61,36,30.21,29.99,9,5,20,0.00
2013-4-6,70.0,58.2,45.0,50.0,42.6,37.0,81,57,40,29.99,29.70,32,16,41,0.00
2013-4-7,75.0,59.4,41.0,54.0,48.2,41.0,100,70,33,29.93,29.75,13,5,0,0.00
2013-4-8,73.0,63.3,52.0,63.0,57.2,52.0,100,81,60,29.84,29.71,23,9,30,0.00
2013-4-9,73.0,65.7,59.0,63.0,59.1,57.0,93,79,64,29.87,29.77,23,12,28,0.00
2013-4-10,68.0,54.4,48.0,63.0,-2.0,-99.9,100,59,77,29.89,29.62,25,8,39,0.00
2013-4-11,48.0,39.0,36.0,43.0,10.0,-99.9,100,74,80,29.75,29.68,17,12,25,0.00
2013-4-12,39.0,36.0,32.0,34.0,31.1,28.0,93,82,74,30.01,29.72,21,11,29,0.00
2013-4-13,55.0,42.9,32.0,41.0,34.5,28.0,100,74,50,30.08,29.86,13,7,16,0.00
2013-4-14,77.0,60.1,41.0,57.0,46.4,37.0,100,64,33,29.86,29.54,25,15,33,0.00
2013-4-15,57.0,51.1,43.0,57.0,48.7,41.0,100,92,66,29.97,29.72,16,7,28,0.00
2013-4-16,46.0,42.0,39.0,43.0,40.6,39.0,100,95,81,30.18,29.97,16,10,28,0.00
2013-4-17,68.0,51.1,45.0,64.0,-39.2,-99.9,100,37,82,30.15,29.65,22,11,30,0.00
2013-4-18,63.0,49.3,36.0,63.0,-27.2,-99.9,100,46,74,29.84,29.50,32,13,38,0.00
2013-4-19,46.0,39.0,34.0,32.0,28.1,25.0,80,66,45,30.08,29.80,28,18,38,0.00
2013-4-20,52.0,40.6,28.0,34.0,28.6,25.0,92,64,39,30.30,30.08,12,4,0,0.00
2013-4-21,64.0,49.8,39.0,45.0,38.1,32.0,81,65,42,30.35,30.21,20,10,24,0.00
2013-4-22,70.0,55.0,39.0,48.0,40.4,37.0,93,61,32,30.25,29.96,17,0,28,0.00
2013-4-23,55.0,42.9,36.0,50.0,40.8,36.0,100,93,66,30.10,29.95,18,10,23,0.00
2013-4-24,50.0,39.4,32.0,36.0,31.9,28.0,100,77,46,30.25,30.07,18,10,23,0.00
2013-4-25,61.0,48.1,37.0,45.0,34.5,30.0,87,62,35,30.35,30.23,16,7,21,0.00
2013-4-26,59.0,50.3,46.0,48.0,43.6,37.0,93,77,62,30.33,30.24,20,10,27,0.00
2013-4-27,48.0,46.9,45.0,48.0,-59.5,-99.9,100,27,93,30.29,29.99,10,6,0,0.00
2013-4-28,63.0,51.6,46.0,54.0,-3.9,-99.9,100,56,67,30.01,29.89,14,7,0,0.00
2013-4-29,82.0,63.5,43.0,64.0,30.6,-99.9,100,60,47,29.90,29.72,18,10,24,0.00
2013-4-30,82.0,71.0,61.0,61.0,56.3,52.0,93,62,36,29.93,29.76,18,12,24,0.00
2013-5-1,81.0,68.4,54.0,63.0,55.6,52.0,93,65,41,30.08,29.93,10,0,18,0.00
2013-5-2,68.0,46.0,36.0,59.0,43.3,36.0,100,90,72,30.25,30.08,18,13,27,0.00
2013-5-3,37.0,35.3,34.0,37.0,32.5,-99.9,100,98,100,30.19,29.85,16,12,21,0.00
2013-5-4,45.0,39.5,34.0,43.0,-10.8,-99.9,100,60,81,30.04,29.83,8,4,0,0.00
2013-5-5,64.0,49.7,37.0,57.0,-19.8,-99.9,100,47,67,30.05,29.95,20,7,23,0.00
2013-5-6,70.0,59.2,48.0,57.0,-0.9,-99.9,100,48,56,30.05,29.97,16,8,22,0.00
2013-5-7,77.0,64.0,50.0,55.0,51.5,48.0,100,66,38,30.07,30.00,8,4,0,0.00
2013-5-8,77.0,62.3,50.0,61.0,55.1,48.0,100,80,44,30.06,29.99,17,5,24,0.00
2013-5-9,72.0,61.9,57.0,64.0,55.8,-99.9,100,92,73,29.99,29.85,15,7,20,0.00
2013-5-10,57.0,54.2,46.0,57.0,5.6,-99.9,100,67,82,30.04,29.87,14,8,21,0.00
2013-5-11,61.0,52.1,43.0,55.0,-11.0,-99.9,100,34,38,30.21,30.03,22,11,31,0.00
2013-5-12,59.0,48.1,36.0,39.0,31.8,28.0,93,56,33,30.28,30.17,16,8,21,0.00
2013-5-13,72.0,55.4,36.0,52.0,41.9,36.0,100,66,34,30.22,30.00,13,5,16,0.00
2013-5-14,88.0,71.7,55.0,57.0,53.2,48.0,82,55,30,30.00,29.82,23,13,30,0.00
2013-5-15,86.0,73.8,63.0,66.0,58.9,52.0,82,60,45,29.94,29.83,18,11,25,0.00
2013-5-16,81.0,62.9,59.0,66.0,40.5,-99.9,100,79,57,29.96,29.87,20,7,28,0.00
2013-5-17,77.0,65.3,59.0,64.0,54.7,-99.9,100,81,64,29.98,29.92,9,4,0,0.00
2013-5-18,81.0,69.6,57.0,70.0,13.1,-99.9,100,51,54,30.01,29.87,12,6,17,0.00
2013-5-19,88.0,76.3,66.0,72.0,66.6,61.0,100,75,43,29.91,29.65,21,11,32,0.00
2013-5-20,79.0,66.7,59.0,68.0,58.6,-99.9,100,84,47,29.90,29.65,28,13,35,0.00
2013-5-21,75.0,66.0,61.0,64.0,44.8,-99.9,100,76,60,29.79,29.70,17,10,23,0.00
2013-5-22,68.0,62.0,57.0,61.0,54.9,-99.9,100,81,63,29.91,29.70,20,10,28,0.00
2013-5-23,64.0,57.7,50.0,57.0,52.9,50.0,100,83,72,30.24,29.91,16,2,23,0.00
2013-5-24,66.0,55.9,45.0,52.0,31.2,-99.9,100,62,39,30.43,30.24,15,6,20,0.00
2013-5-25,66.0,56.4,46.0,59.0,50.9,43.0,100,82,66,30.30,30.12,20,8,28,0.00
2013-5-26,82.0,65.5,54.0,68.0,60.9,54.0,100,86,54,30.18,29.97,31,7,36,0.00
2013-5-27,70.0,64.9,59.0,68.0,14.4,-99.9,100,65,82,30.01,29.76,18,1,25,0.00
2013-5-28,77.0,70.4,66.0,70.0,66.5,64.0,100,88,73,29.91,29.77,18,12,29,0.00
2013-5-29,84.0,72.8,63.0,68.0,64.8,61.0,100,78,51,29.96,29.78,21,11,28,0.00
2013-5-30,81.0,69.5,61.0,70.0,53.8,-99.9,100,78,57,29.88,29.75,27,15,37,0.00
2013-5-31,77.0,64.5,59.0,72.0,-25.1,-99.9,100,42,83,29.90,29.71,17,2,32,0.00
2013-6-1,73.0,65.2,59.0,66.0,14.7,-99.9,100,58,60,29.93,29.72,22,12,27,0.00
2013-6-2,61.0,58.3,55.0,55.0,54.0,50.0,93,84,77,30.07,29.93,13,8,18,0.00
2013-6-3,70.0,59.3,46.0,55.0,50.6,46.0,100,74,52,30.12,30.00,9,4,0,0.00
2013-6-4,73.0,61.8,52.0,59.0,55.2,52.0,100,80,56,30.09,29.99,12,6,0,0.00
2013-6-5,73.0,63.8,52.0,66.0,41.1,-99.9,100,76,64,30.05,29.91,9,3,0,0.00
2013-6-6,73.0,66.2,59.0,63.0,42.7,-99.9,100,67,46,29.94,29.88,13,8,17,0.00
2013-6-7,73.0,61.5,52.0,57.0,54.7,52.0,100,80,46,29.99,29.93,14,6,20,0.00
2013-6-8,79.0,65.2,50.0,59.0,28.9,-99.9,100,55,41,29.99,29.90,12,4,17,0.00
2013-6-9,77.0,65.9,61.0,64.0,59.7,57.0,100,80,53,29.92,29.79,16,8,20,0.00
2013-6-10,77.0,67.9,59.0,64.0,61.4,59.0,100,80,57,29.92,29.80,10,5,16,0.00
2013-6-11,88.0,74.4,59.0,72.0,52.8,-99.9,100,69,51,29.94,29.86,18,8,24,0.00
2013-6-12,93.0,80.9,72.0,73.0,69.8,66.0,88,70,46,29.93,29.76,29,14,35,0.00
2013-6-13,81.0,72.6,64.0,70.0,60.4,57.0,82,66,44,30.05,29.83,20,9,27,0.00
2013-6-14,81.0,71.9,59.0,64.0,60.9,59.0,100,70,47,30.12,29.97,17,5,24,0.00
2013-6-15,88.0,73.8,64.0,73.0,67.2,61.0,100,80,58,30.09,29.94,21,9,33,0.00
2013-6-16,81.0,75.1,70.0,73.0,71.8,70.0,100,89,74,30.00,29.93,6,2,0,0.00
2013-6-17,79.0,72.6,64.0,73.0,50.6,-99.9,100,79,78,30.00,29.92,15,4,22,0.00
2013-6-18,84.0,71.8,63.0,70.0,58.4,-99.9,100,74,42,30.02,29.95,13,0,17,0.00
2013-6-19,84.0,72.5,61.0,66.0,62.3,59.0,100,73,45,30.11,30.02,8,4,0,0.00
2013-6-20,88.0,80.0,64.0,68.0,65.9,64.0,100,63,48,30.11,30.06,17,10,24,0.00
2013-6-22,91.0,82.6,72.0,73.0,70.7,66.0,88,68,49,30.09,29.97,18,13,21,0.00
2013-6-23,90.0,72.5,66.0,72.0,63.6,-99.9,100,83,55,30.04,29.91,32,10,39,0.00
2013-6-24,88.0,77.2,66.0,73.0,69.2,-99.9,100,80,58,30.07,29.90,17,10,24,0.00
2013-6-25,90.0,80.5,72.0,73.0,71.0,68.0,88,73,55,29.96,29.81,27,13,33,0.00
2013-6-26,91.0,80.7,68.0,77.0,70.2,63.0,100,72,40,29.87,29.76,20,10,28,0.00
2013-6-27,91.0,78.8,68.0,70.0,65.7,61.0,88,66,36,29.97,29.85,20,7,25,0.00
2013-6-28,86.0,77.7,70.0,72.0,62.6,54.0,100,64,33,29.91,29.78,24,12,36,0.00
2013-6-29,81.0,70.3,63.0,64.0,59.5,57.0,100,70,44,29.83,29.72,24,12,32,0.00
2013-6-30,75.0,67.1,61.0,63.0,61.1,57.0,100,82,57,30.00,29.83,17,10,22,0.00
2013-7-1,79.0,68.1,57.0,63.0,56.7,54.0,100,70,44,30.06,29.99,20,10,24,0.00
2013-7-2,79.0,68.0,57.0,57.0,53.9,52.0,87,62,41,30.10,30.04,17,8,23,0.00
2013-7-3,82.0,68.8,57.0,59.0,56.4,54.0,100,69,37,30.10,30.02,9,2,0,0.00
2013-7-4,84.0,71.6,57.0,61.0,58.5,54.0,100,67,34,30.10,30.01,12,-3,22,0.00
2013-7-5,86.0,73.7,63.0,64.0,61.2,59.0,100,67,40,30.09,30.02,12,6,17,0.00
2013-7-6,88.0,79.1,70.0,66.0,64.8,63.0,88,62,45,30.06,29.97,14,8,18,0.00
2013-7-7,90.0,78.5,66.0,70.0,65.9,63.0,88,67,43,30.04,29.99,15,9,20,0.00
2013-7-8,90.0,79.8,73.0,72.0,66.8,-99.9,78,67,49,30.10,30.03,14,8,17,0.00
2013-7-9,93.0,83.4,75.0,73.0,70.6,68.0,83,65,46,30.07,29.92,17,9,24,0.00
2013-7-10,88.0,77.8,70.0,75.0,60.5,-99.9,100,69,43,30.06,29.91,17,9,22,0.00
2013-7-11,82.0,71.4,59.0,63.0,60.0,57.0,100,69,44,30.11,30.05,10,-10,18,0.00
2013-7-12,84.0,69.9,57.0,63.0,55.3,-99.9,100,68,39,30.15,30.06,13,4,20,0.00
2013-7-13,82.0,70.2,54.0,63.0,58.5,54.0,100,69,44,30.13,30.05,12,4,0,0.00
2013-7-14,86.0,74.2,61.0,68.0,63.7,61.0,100,72,45,30.17,30.08,15,6,18,0.00
2013-7-15,86.0,75.6,66.0,73.0,57.6,-99.9,100,76,58,30.25,30.17,15,-3,21,0.00
2013-7-16,90.0,78.7,66.0,77.0,34.1,-99.9,100,57,49,30.32,30.24,10,5,0,0.00
2013-7-17,91.0,81.1,68.0,75.0,57.1,-99.9,100,66,46,30.36,30.23,9,3,0,0.00
2013-7-18,93.0,82.0,70.0,73.0,70.5,66.0,100,71,41,30.26,30.04,9,4,0,0.00
2013-7-19,93.0,82.8,72.0,72.0,68.6,64.0,100,64,38,30.04,29.90,14,8,23,0.00
2013-7-20,90.0,78.0,70.0,73.0,67.3,-99.9,100,71,52,29.95,29.87,12,5,16,0.00
2013-7-21,81.0,72.5,66.0,72.0,41.5,-99.9,100,72,65,29.97,29.88,12,4,16,0.00
2013-7-22,90.0,75.5,63.0,77.0,-1.4,-99.9,100,42,55,29.90,29.79,13,3,16,0.00
2013-7-23,86.0,75.3,66.0,75.0,68.0,61.0,100,79,51,29.97,29.79,17,7,30,0.00
2013-7-24,79.0,67.8,59.0,63.0,58.0,-99.9,100,76,47,30.07,29.96,12,5,0,0.00
2013-7-25,82.0,69.0,54.0,63.0,47.6,-99.9,100,66,42,30.15,30.07,8,2,0,0.00
2013-7-26,75.0,69.1,66.0,72.0,64.2,-99.9,100,87,72,30.08,29.98,16,8,20,0.00
2013-7-27,73.0,63.8,55.0,59.0,53.8,48.0,100,73,43,30.07,30.00,15,8,21,0.00
2013-7-28,77.0,63.2,46.0,55.0,51.5,46.0,100,69,41,30.08,30.02,12,4,20,0.00
2013-7-29,70.0,61.6,52.0,66.0,36.5,-99.9,100,78,68,30.17,30.08,9,4,0,0.00
2013-7-30,81.0,70.6,63.0,72.0,59.6,-99.9,100,86,69,30.10,30.01,9,5,0,0.00
2013-7-31,73.0,69.8,63.0,68.0,11.9,-99.9,100,57,73,30.11,30.04,13,6,16,0.00
2013-8-1,86.0,70.5,59.0,68.0,-3.8,-99.9,100,39,39,30.12,30.01,8,4,0,0.00
2013-8-2,75.0,68.3,64.0,73.0,35.1,-99.9,100,77,83,30.01,29.92,18,5,16,0.00
2013-8-3,82.0,71.3,64.0,72.0,-4.7,-99.9,100,42,61,30.16,29.97,9,-3,0,0.00
2013-8-4,77.0,68.1,59.0,66.0,62.4,59.0,100,82,60,30.21,30.09,9,4,0,0.00
2013-8-5,77.0,68.8,63.0,72.0,53.1,-99.9,100,86,78,30.11,29.87,14,5,0,0.00
2013-8-6,84.0,74.0,66.0,73.0,13.1,-99.9,100,55,69,29.93,29.85,13,6,22,0.00
2013-8-7,82.0,73.4,68.0,75.0,23.3,-99.9,100,64,74,29.97,29.83,16,7,22,0.00
2013-8-8,77.0,69.3,63.0,70.0,51.8,-99.9,100,84,78,30.02,29.94,12,5,0,0.00
2013-8-9,77.0,69.7,64.0,70.0,15.5,-99.9,100,60,73,30.12,30.00,8,3,0,0.00
2013-8-10,81.0,70.6,59.0,66.0,10.6,-99.9,100,45,44,30.21,30.11,13,6,17,0.00
2013-8-11,84.0,69.1,54.0,64.0,47.9,-99.9,100,68,47,30.19,30.07,9,4,16,0.00
2013-8-12,79.0,68.3,63.0,73.0,50.8,-99.9,100,86,83,30.09,29.98,14,2,22,0.00
2013-8-13,77.0,66.7,59.0,63.0,10.6,-99.9,100,51,50,30.17,30.02,12,6,0,0.00
2013-8-14,73.0,62.3,52.0,57.0,51.6,-99.9,100,75,43,30.25,30.15,8,3,0,0.00
2013-8-15,73.0,56.9,50.0,57.0,26.9,-99.9,100,66,49,30.20,30.10,7,2,0,0.00
2013-8-16,75.0,63.5,54.0,57.0,53.4,-99.9,100,75,46,30.19,30.12,12,4,0,0.00
2013-8-17,79.0,63.8,50.0,59.0,34.4,-99.9,100,63,47,30.23,30.14,10,4,17,0.00
2013-8-18,81.0,66.5,52.0,64.0,28.7,-99.9,100,61,54,30.22,30.11,7,2,0,0.00
2013-8-19,82.0,66.1,55.0,68.0,18.6,-99.9,100,57,51,30.15,30.05,7,3,0,0.00
2013-8-20,86.0,71.3,59.0,68.0,38.8,-99.9,100,64,45,30.13,30.04,8,4,0,0.00
2013-8-21,88.0,73.6,59.0,68.0,31.6,-99.9,100,57,48,30.14,30.05,12,6,0,0.00
2013-8-22,88.0,76.4,63.0,73.0,58.0,-99.9,100,74,51,30.13,30.05,9,2,0,0.00
2013-8-23,90.0,76.6,66.0,73.0,30.7,-99.9,100,58,52,30.14,30.06,8,3,0,0.00
2013-8-24,90.0,75.1,64.0,72.0,40.1,-99.9,100,63,45,30.22,30.12,8,4,0,0.00
2013-8-25,90.0,75.6,61.0,70.0,40.5,-99.9,100,59,35,30.28,30.17,9,5,0,0.00
2013-8-26,90.0,77.5,64.0,73.0,44.5,-99.9,100,63,49,30.22,30.09,12,7,0,0.00
2013-8-27,91.0,76.8,66.0,72.0,31.9,-99.9,100,58,38,30.11,30.04,16,9,21,0.00
2013-8-28,91.0,86.2,72.0,68.0,65.9,64.0,78,52,40,30.07,30.02,13,7,17,0.00
2013-8-29,95.0,79.9,66.0,72.0,68.0,64.0,100,70,38,30.10,29.99,9,5,0,0.00
2013-8-30,95.0,83.0,68.0,73.0,63.3,-99.9,100,65,41,30.00,29.86,14,7,20,0.00
2013-8-31,97.0,82.1,72.0,73.0,69.5,-99.9,100,69,41,29.87,29.78,16,9,22,0.00
2013-9-1,88.0,76.1,66.0,75.0,19.9,-99.9,100,52,40,29.92,29.82,12,4,17,0.00
2013-9-2,82.0,70.2,59.0,61.0,58.5,54.0,100,69,41,30.03,29.92,10,7,20,0.00
2013-9-3,82.0,65.7,50.0,59.0,52.7,48.0,100,67,34,30.13,30.02,8,2,0,0.00
2013-9-4,88.0,68.2,48.0,59.0,53.2,48.0,100,66,31,30.19,30.08,9,-10,0,0.00
2013-9-5,86.0,70.2,55.0,66.0,59.3,54.0,100,72,42,30.23,30.15,6,2,0,0.00
2013-9-6,90.0,74.8,55.0,66.0,48.5,-99.9,100,58,29,30.20,30.05,10,3,0,0.00
2013-9-7,93.0,76.1,59.0,66.0,45.3,-99.9,100,57,36,30.06,29.93,12,7,17,0.00
2013-9-8,86.0,75.8,68.0,73.0,50.9,-99.9,100,71,58,30.03,29.90,15,8,18,0.00
2013-9-9,93.0,79.5,70.0,73.0,13.5,-99.9,100,43,40,30.00,29.91,14,8,21,0.00
2013-9-10,91.0,77.9,66.0,68.0,66.1,63.0,100,72,40,30.11,30.00,15,7,21,0.00
2013-9-11,91.0,77.0,63.0,68.0,64.6,63.0,100,69,40,30.17,30.05,15,6,22,0.00
2013-9-12,84.0,72.9,61.0,70.0,58.0,-99.9,100,73,41,30.14,30.04,13,6,17,0.00
2013-9-13,73.0,61.1,48.0,54.0,50.3,43.0,100,71,43,30.20,30.11,12,-6,0,0.00
2013-9-14,75.0,57.0,41.0,50.0,43.5,-99.9,100,67,33,30.19,30.04,9,3,0,0.00
2013-9-15,79.0,61.8,50.0,64.0,53.8,-99.9,100,81,50,30.15,30.02,15,8,23,0.00
2013-9-16,68.0,59.4,55.0,61.0,37.9,-99.9,100,77,64,30.32,30.15,13,8,20,0.00
2013-9-17,66.0,59.7,55.0,63.0,1.6,-99.9,100,62,82,30.26,30.07,9,5,0,0.00
2013-9-18,72.0,64.6,63.0,68.0,-82.2,-99.9,94,10,88,30.08,29.96,10,7,0,0.00
2013-9-19,88.0,76.4,66.0,70.0,64.7,-99.9,100,76,51,29.98,29.85,15,10,22,0.00
2013-9-20,70.0,63.7,52.0,63.0,-8.4,-99.9,100,45,56,29.99,29.89,16,8,22,0.00
2013-9-21,70.0,55.8,46.0,52.0,31.6,-99.9,100,67,43,30.04,29.94,12,6,16,0.00
2013-9-22,75.0,57.6,41.0,55.0,-16.3,-99.9,100,30,38,30.05,29.94,7,2,0,0.00
2013-9-23,75.0,60.0,43.0,54.0,21.1,-99.9,100,54,41,30.03,29.92,13,5,17,0.00
2013-9-24,81.0,65.9,48.0,64.0,20.2,-99.9,100,54,39,29.95,29.80,13,6,18,0.00
2013-9-25,77.0,64.0,57.0,66.0,-31.2,-99.9,100,35,61,29.92,29.82,7,2,0,0.00
2013-9-26,82.0,66.9,52.0,66.0,-11.4,-99.9,93,36,51,30.02,29.90,13,5,18,0.00
2013-9-27,82.0,68.1,55.0,64.0,30.0,-99.9,100,60,48,30.10,29.99,14,7,29,0.00
2013-9-28,75.0,65.3,57.0,72.0,16.0,-99.9,100,63,69,30.07,29.94,17,10,25,0.00
2013-9-29,72.0,58.0,46.0,59.0,-7.8,-99.9,100,42,43,30.12,30.01,8,2,0,0.00
2013-9-30,73.0,56.5,43.0,61.0,31.1,-99.9,100,77,64,30.01,29.90,13,5,0,0.00
2013-10-1,57.0,57.0,57.0,-99.9,-99.9,-99.9,0,0,100,30.02,30.02,5,5,0,0.00
2013-10-2,86.0,69.7,57.0,73.0,-7.0,-99.9,100,42,45,30.07,29.94,15,5,17,0.00
2013-10-3,84.0,73.2,64.0,70.0,42.3,-99.9,100,68,54,29.96,29.85,15,9,23,0.00
2013-10-4,86.0,74.3,64.0,70.0,14.8,-99.9,100,48,48,29.97,29.87,15,9,21,0.00
2013-10-5,73.0,59.7,45.0,70.0,38.5,-99.9,100,84,83,29.97,29.90,12,7,0,0.00
2013-10-6,52.0,46.7,39.0,48.0,29.2,-99.9,100,77,66,29.94,29.86,18,9,28,0.00
2013-10-7,70.0,54.6,48.0,48.0,45.4,43.0,93,73,40,30.15,29.93,10,7,0,0.00
2013-10-8,75.0,56.8,39.0,52.0,24.9,-99.9,100,57,35,30.20,30.11,13,6,18,0.00
2013-10-9,73.0,56.6,39.0,50.0,23.2,-99.9,100,55,33,30.19,30.10,8,3,0,0.00
2013-10-10,77.0,59.8,45.0,57.0,20.6,-99.9,100,55,36,30.15,30.00,10,5,0,0.00
2013-10-11,79.0,64.6,48.0,61.0,1.8,-99.9,100,41,50,30.01,29.87,15,9,23,0.00
2013-10-12,72.0,61.8,50.0,61.0,49.5,-99.9,100,70,32,30.24,29.92,17,8,23,0.00
2013-10-13,70.0,53.5,37.0,43.0,37.7,34.0,100,60,28,30.43,30.24,9,4,0,0.00
2013-10-14,68.0,53.2,39.0,52.0,40.4,36.0,87,64,37,30.36,30.04,14,6,18,0.00
2013-10-15,61.0,56.3,48.0,61.0,16.1,-99.9,100,66,71,30.04,29.90,14,10,20,0.00
2013-10-16,54.0,46.7,39.0,43.0,40.3,37.0,100,79,62,30.08,30.00,15,7,18,0.00
2013-10-17,63.0,50.9,43.0,48.0,19.1,-99.9,100,62,48,30.03,29.92,15,6,21,0.00
2013-10-18,52.0,44.8,39.0,43.0,38.9,36.0,100,82,53,30.10,29.95,14,8,21,0.00
2013-10-19,55.0,43.1,34.0,39.0,24.1,-99.9,100,70,43,30.05,29.93,18,10,27,0.00
2013-10-20,70.0,53.4,41.0,43.0,39.2,37.0,86,62,34,29.94,29.83,18,11,27,0.00
2013-10-21,54.0,46.1,32.0,43.0,36.0,30.0,100,68,49,30.09,29.92,14,8,20,0.00
2013-10-22,59.0,42.3,32.0,46.0,37.4,30.0,100,83,58,30.06,29.81,21,11,29,0.00
2013-10-23,43.0,36.8,30.0,37.0,32.0,27.0,100,85,52,30.17,30.05,15,8,20,0.00
2013-10-24,45.0,37.4,27.0,37.0,29.9,25.0,100,76,48,30.42,30.15,20,10,28,0.00
2013-10-25,54.0,38.4,25.0,32.0,26.7,25.0,100,67,32,30.50,30.19,15,6,18,0.00
2013-10-26,59.0,46.0,32.0,41.0,31.4,-99.9,86,59,35,30.19,30.07,17,10,24,0.00
2013-10-27,32.0,27.5,25.0,28.0,26.5,25.0,100,96,80,30.16,30.12,6,1,0,0.00